STARLINK-1357, 45565

Orbit data source: Space-Track

STARLINK-1357, 45565 is a payload satellite owned by SpaceX/Seattle (US) in LEO that was launched on Wed, 22 Apr 2020 UTC via an FALCON 9 launch vehicle from the Air Force Eastern Test Range (AFETR). Payload-class satellites include a variety of spacecraft equipped with specific instruments for various scientific and technological missions. These include communications satellites like Starlink; space stations such as the ISS; scientific satellites like the Hubble; Earth observation satellites from companies like Planet Labs, Umbra, and HawkEye 360; GPS; miniature CubeSats for education and research; and military/defense satellites.

Loading next visibility...
Identifier
45565, 2020-025AL
Orbit
LEO
Country
Flag of USUS
Related business
Manufacturer
SpaceX/Seattle
Mission
Partially operational Commercial Communications
Bus & Motor
STARLINK, Unknown motor
Mass
260 kg wet, ~248 kg dry
Launch date (UTC)
2020-04-22 (6 years ago)
Launch vehicle
FALCON 9
Launch site
Air Force Eastern Test Range (AFETR)
Object type
Payload
Rocket body
Debris
Shape & HBR
Box + 1 Pan, 10.1 m
Radar Cross Section
13.562 m², Large (>1 m²)

Expand to show TLE details & history
Last TLE update: 15 hours ago

TLE from 15 hours ago
0 STARLINK-1357
1 45565U 20025AL  25300.34704314  .00074027  00000-0  23969-2 0  9991
2 45565  53.0631 311.0025 0006669 329.5407  30.5205 15.31367696305475
Epoch: 2025-10-27T08:19Z
TLE epoch observation values (Epoch: 2025-10-27T08:19:44.527Z)
Latitude
0.00001°
Longitude
150.11678°
Altitude
468.686 km
Speed
7.635 km/s
True Right ascension
20h 44m 00s
True Declination
0° 00' 00"
Sunlit
Object was in daylight at epoch
Visualization orbit readout
Latitude
Unknown
Longitude
Unknown
Altitude
Unknown
Speed
Unknown
Apparent Right ascension
Unknown
Apparent Declination
Unknown
Sunlit
N/A
Visualization observer readout
Local Sidereal Time
18:36:46
Azimuth
Unknown
Elevation
Unknown
Doppler factor
Unknown
Orbital elements
Apogee altitude
476.571 km
Perigee altitude
467.435 km
Semi-major axis
6,850.14 km
Eccentricity
0.00067
Inclination
53.0631°
RAAN
311.0025°
Arg. of periapsis
329.5407°
True anomaly
30.55934°
Mean anomaly
30.5205°
Eccentric anomaly
30.53992°
Mean motion
3.82819 °/min
Orbital period
94.04 mins
BSTAR
0.0023969
Loading maneuver chart data...
Computing Atmospheric mass density...

Documentation

Showing up to 5 results
|